NOAA NWS Hourly Roundups by Site

Regional Weather Roundup for San Diego, CA

To Select Another Site Choose from List

Select Site:  

647
ASUS46 KSGX 141711
RWRSGX

SAN DIEGO HOURLY WEATHER ROUNDUP
NATIONAL WEATHER SERVICE SAN DIEGO CA
1000 AM PDT TUE JUL 14 2020

NOTE: "FAIR" INDICATES FEW OR NO CLOUDS BELOW 12,000 FEET WITH NO
SIGNIFICANT WEATHER AND/OR OBSTRUCTIONS TO VISIBILITY.

CAZ042-043-060-061-PZZ750-775-141800-

GREATER SAN DIEGO AREA

CITY           SKY/WX    TMP DP  RH WIND       PRES   REMARKS
SAN DIEGO AP   PTSUNNY   71  60  68 S7G21     29.99S
CHULA VISTA      N/A     73  65  75 W3        29.88S
BROWN FIELD    SUNNY     73  61  65 VRB6      29.98S
MIRAMAR MCAS   MOSUNNY   76  62  62 VRB6      29.98S
MONTGOMERY FLD MOSUNNY   75  61  61 W5        29.98S
GILLESPIE FLD  SUNNY     75  61  60 CALM      29.98S
LEMON GROVE      N/A     72  64  74 CALM      29.95R

$$

NORTH SAN DIEGO COUNTY

CITY           SKY/WX    TMP DP  RH WIND       PRES   REMARKS
CAMP PENDLETON MOSUNNY   78  58  49 VRB3      29.97S
OCEANSIDE AP   CLOUDY    75  64  68 S7        29.97R
OCEANSIDE HBR    N/A     72  65  78 CALM      30.05R
VISTA            N/A     73  63  69 W2        29.94S
CARLSBAD       MOSUNNY   72  60  66 SW8       29.97S
ENCINITAS        N/A     73  65  77 W2          N/A
LA JOLLA SCRIP   N/A     69  63  81 CALM      29.98S
FALLBROOK      FAIR      72  59  64 CALM      29.99S
ESCONDIDO        N/A     78  63  60 CALM      29.95F
SAN MARCOS       N/A     73  64  72 CALM      30.00R
RANCHO BERNARD   N/A     75  62  64 CALM      29.95S
POWAY            N/A     78  63  58 SE3       29.97S

$$

EAST SAN DIEGO COUNTY

CITY           SKY/WX    TMP DP  RH WIND       PRES   REMARKS
RAMONA         SUNNY     75  60  59 VRB6      30.00R
LA MESA          N/A     72  63  72 CALM      29.91S
JAMUL            N/A     74  62  66 CALM      29.95R
DESCANSO N       N/A     82  33  16 SW2       29.93R
CAMPO            N/A     84  32  15 SW9       29.99S

$$

ORANGE COUNTY AND THE LOS ANGELES BASIN

CITY           SKY/WX    TMP DP  RH WIND       PRES   REMARKS
JOHN WAYNE AP  PTSUNNY   74  60  61 VRB7      29.97R
LAGUNA BEACH     N/A     73  65  75 CALM      29.96S
LAKE FOREST FR   N/A     73  59  62 W1        29.85S
HUNTINGTON BCH   N/A     73  65  75 SW1       29.97S
LOS ALAMITOS   PTSUNNY   75  61  60 SW6       29.97S
FULLERTON      MOSUNNY   76  59  55 SE5       29.96S
LONG BEACH     MOSUNNY   74  60  61 SE8       29.97S
L.A. AP        MOSUNNY   72  60  66 W7        29.97S
L.A. DOWNTOWN  MOSUNNY   77  60  55 CALM      29.95F

$$

THE INLAND EMPIRE

CITY           SKY/WX    TMP DP  RH WIND       PRES   REMARKS
CORONA         MOSUNNY   72  62  71 VRB3      29.98S
UPLAND AP      FAIR      72  59  64 CALM      29.99S
CHINO          MOSUNNY   74  59  59 SW5       29.99S
ONTARIO        MOSUNNY   72  59  63 S6        29.98S
SAN BERNARDINO MOSUNNY   77  57  50 CALM      29.98F HAZE
RIVERSIDE AP   MOSUNNY   71  58  63 CALM      29.98S
MORENO VALLEY    N/A     75  63  66 S3        29.93S
MARCH ARB      SUNNY     75  54  47 SE5       29.99S
HORSETHIEF CYN   N/A     76  54  47 S2        29.92S
HEMET AP       FAIR      75  56  51 W5        30.00R
FRENCH VALLEY  FAIR      72  57  60 CALM      30.00S
TEMECULA         N/A     71  63  75 S1        29.96S

$$

SAN BERNARDINO AND RIVERSIDE COUNTY MOUNTAINS

CITY           SKY/WX    TMP DP  RH WIND       PRES   REMARKS
BIG BEAR AP    MOSUNNY   72   0   6 W10G17    30.26R
BIG BEAR LAKE    N/A     74   6   7 SW1       29.83R
LK ARROWHEAD N   N/A     72  31  22 SE1       29.79R
WRIGHTWOOD       N/A     80  16   9 CALM      29.73S
ANGELUS OAKS     N/A     66  35  31 CALM      29.77S
IDYLLWILD        N/A     75   7   7 SE2       29.80R
GARNER VALLEY    N/A     82  30  15 SW3       29.82S
TORO PEAK        N/A     62  -9   5 W6          N/A

$$

SOUTHERN DESERT INCLUDING THE COACHELLA VALLEY

CITY           SKY/WX    TMP DP  RH WIND       PRES   REMARKS
PALM SPRINGS   SUNNY     97  34  11 SE3       29.83S
THOUSAND PALMS   N/A     95  38  13 S2        29.76S
PALM DESERT      N/A     99  38  12 CALM      29.77F
INDIO            N/A     94  43  16 CALM      29.78F
THERMAL        SUNNY     97  45  16 S6        29.77S
BORREGO AP     FAIR     100   3   3 VRB3      29.81S
OCOTILLO WELLS   N/A    104   0   2 W3        29.72S HX  95
CANEBRAKE        N/A    100 -17   1 SW1       29.72S
BLYTHE         SUNNY    100  34  10 S16       29.80S
IMPERIAL AP    SUNNY     96  61  31 SE7       29.78S HX  96
YUMA AZ        MOSUNNY   96  61  31 SE9       29.82S HX  96

$$

UPPER DESERT

CITY           SKY/WX    TMP DP  RH WIND       PRES   REMARKS
HESPERIA         N/A     83  25  12 W7        29.82S
APPLE VALLEY     N/A     84  35  17 N6        29.84S
PALMDALE       SUNNY     89  19   7 SW16      29.96S
LANCASTER      SUNNY     87  33  14 SW22      29.95R
EDWARDS AFB    MOSUNNY   87  32  14 SW21      29.91S
GRAY BUTTE AP  FAIR      86  30  13 VRB7      29.95S
DAGGETT        SUNNY     92  30  11 NW9       29.90F
29 PALMS N     SUNNY     95   8   4 NW5       29.96S
NEEDLES        SUNNY    103  31   8 E7        29.81S HX  96

$$

REGIONAL REPORTS

CITY           SKY/WX    TMP DP  RH WIND       PRES   REMARKS
SANTA BARBARA  CLOUDY    62  57  83 CALM      29.99R FOG
SANDBERG       SUNNY     71  39  31 S16G22    30.10S
LAS VEGAS NV   MOSUNNY   96   6   3 S17G26    29.85F
PHOENIX AZ     MOSUNNY   98  56  24 SE5       29.87F HX  96
TIJUANA        SUNNY     73  61  64 NW8       30.00S
ENSENADA NW      N/A     70  32  24 W7        29.93R

$$

OFFSHORE ISLANDS

CITY           SKY/WX    TMP DP  RH WIND       PRES   REMARKS
CATALINA ARPT  MOSUNNY   67  58  72 N6        30.01S
SAN CLEMENTE I CLOUDY    64  54  69 W10       30.01R
SAN NICOLAS IS CLOUDY    58  54  86 NW14      30.00R

$$

MARINE AND OFFSHORE BUOY REPORTS

STATION/POSITION SKY/WX   TEMP    WIND        PRES    VSBY  SWELL
                          AIR SEA DIR/SP/G                  HT/PER/DIR
                          (F)     (DEG/KT/KT) (MB)    (MI)  (FT/S/D)
TANNER BANKS               60     320/ 14/ 17 1016.5R         5/290/ 9
S CLEMENTE BASIN           63                 1015.5R         5/270/ 7
SAN NICOLAS IS.               64                N/A           2/240/11
SO. S. ROSA ISLA           58 63              1016.8R         3/300/ 9
W. S. BARBARA CH           56 57  310/ 14/ 17 1016.1R         3/310/ 9
M. S. BARBARA CH           60      40/  4/  4 1016.1R         2/260/ 6
S. MONICA BASIN            64 71  330/  6/  8 1015.2R         3/250/ 6
S PEDRO CHANNEL               71                N/A
OCEANSIDE OFFSHR              73                N/A           2/200/13
TORREY PINES OTR              71                N/A           2/200/13
SAN DIEGO BAY                 75                N/A
POINT LOMA SOUTH              73                N/A           2/180/12

$$




 

View Past Reports for San Diego, CA.

Products Courtesy of NOAA-NWS
NWS Information Parsing Script by Ken True at Saratoga Weather - Script by SE Lincoln Weather.